STARLINK-11431 [DTC] (62890 NORAD) Tracking and Keplerian Element Data

This shows tracking and keplerian element data for the satellite.

Feedback or suggestion? Click here.




ElementValue
Catalog62890
NameSTARLINK-11431 [DTC]
Epoch Orbit5081
Epoch Day353.26971986
Epoch Year2025
RAAN306.6459
Inclination43.0001
Eccentricity0.0001943
Argument of Perigee279.7998
Mean Anonmoly80.265
Mean Motion15.70890459
Decay Rate0.00230481
L11 62890U 25024M 25353.26971986 .00230481 00000+0 17466-2 0 9997
L22 62890 43.0001 306.6459 0001943 279.7998 80.2650 15.70890459 50819



Live tracking and technical data element details for STARLINK-11431 [DTC] (NORAD 62890). STARLINK-11431 [DTC] can be tracked NOW for your location showing map with azimuth and elevation plus other details from your city location.







IsCatalogInMostPopularTable: catalog: 62890, numindb: 2
Update: records affected: 1



GetName: 62890 STARLINK-11431 [DTC]

Hit Count: updated at: Sun, 08 Feb 2026 16:27:23 GMT